Location: Beetenbrück
(52.8113°N, 9.5946°E)
Time: 16:26:04
(UTC+00:00)

USA 281 - Pass Details

Date: 14 April 2026
Orbit: 1079 x 1080 km, 106.0° (Epoch: 5 January)

Event Time Altitude Azimuth Distance (km) Brightness Sun altitude
Exits shadow 23:41:47 24° 114° (ESE) 2,070 4.5 -27.3°
Maximum altitude 23:45:35 51° 51° (NE) 1,343 3.9 -27.3°
Drops below altitude 10° 23:51:54 10° 338° (NNW) 2,933 6.2 -27.2°
Sets 23:54:29 0° 333° (NNW) 3,893 6.9 -27.1°
